CFG459X LPMA-EDDM

Flight info

Callsign CFG459X
Flight time N/A
Altitude 36000
Route DEGUN DCT GALPA DCT NARTA DCT ESUTI DCT MAZUK DCT PINOX DCT TOSDI DCT ZMR/N0446F380 DCT NEA DCT DGO DCT LPA DCT GOSVI DCT TOPTU DCT TOU DCT GAI DCT MEN DCT NINUN DCT LATAM DCT ETREK DCT LTP DCT SOPLO DCT OMASI DCT KINNI DCT LAMUR DCT KORED DCT BERSU DCT DITON/N0451F390 DCT NUNRI T103 BETOS BETOS1A
Aircraft A320/M-SDE3FGHIRWY/LB1

Departure

Time 2026-05-08 07:50
Airport Cristiano Ronaldo International Airport (LPMA)

Arrival

Time N/A
Airport Munich Airport (EDDM)
Time Latitude Longitude Altitude Speed Heading
2026-05-08 07:33 32.69309 -16.77731 176 ft 0 kts 138°
2026-05-08 07:41 32.69310 -16.77731 176 ft 1 kts 138°
2026-05-08 07:41 32.69323 -16.77746 176 ft 4 kts 140°
2026-05-08 07:42 32.69346 -16.77762 176 ft 4 kts 169°
2026-05-08 07:42 32.69369 -16.77759 176 ft 4 kts 220°
2026-05-08 07:42 32.69377 -16.77751 176 ft 1 kts 225°
2026-05-08 07:42 32.69377 -16.77750 176 ft 0 kts 225°
2026-05-08 07:45 32.69372 -16.77757 176 ft 3 kts 225°
2026-05-08 07:45 32.69346 -16.77787 176 ft 5 kts 226°
2026-05-08 07:46 32.69322 -16.77817 176 ft 7 kts 226°
2026-05-08 07:46 32.69289 -16.77889 176 ft 14 kts 264°
2026-05-08 07:46 32.69284 -16.78029 176 ft 19 kts 259°
2026-05-08 07:46 32.69199 -16.78136 176 ft 19 kts 225°
2026-05-08 07:47 32.69106 -16.78249 176 ft 20 kts 225°
2026-05-08 07:47 32.69006 -16.78369 176 ft 21 kts 225°
2026-05-08 07:47 32.68916 -16.78418 176 ft 8 kts 175°
2026-05-08 07:47 32.68892 -16.78449 176 ft 5 kts 282°
2026-05-08 07:48 32.68914 -16.78465 176 ft 3 kts 357°
2026-05-08 07:48 32.68926 -16.78455 176 ft 1 kts 43°
2026-05-08 07:48 32.68929 -16.78452 176 ft 0 kts 44°
2026-05-08 07:48 32.68930 -16.78451 176 ft 2 kts 44°
2026-05-08 07:49 32.69037 -16.78325 176 ft 55 kts 45°
2026-05-08 07:49 32.69480 -16.77808 177 ft 121 kts 44°
2026-05-08 07:49 32.70207 -16.76958 210 ft 168 kts 45°
2026-05-08 07:49 32.71085 -16.75963 658 ft 180 kts 46°
2026-05-08 07:50 32.71662 -16.74693 1368 ft 177 kts 89°
2026-05-08 07:50 32.71321 -16.73308 1970 ft 180 kts 118°
2026-05-08 07:50 32.70737 -16.71893 2266 ft 203 kts 118°
2026-05-08 07:50 32.70116 -16.70296 2611 ft 220 kts 118°
2026-05-08 07:51 32.69486 -16.68584 3082 ft 232 kts 118°
2026-05-08 07:51 32.68840 -16.66759 3444 ft 251 kts 117°
2026-05-08 07:51 32.68147 -16.64754 3804 ft 273 kts 116°
2026-05-08 07:51 32.67427 -16.62621 4500 ft 282 kts 115°
2026-05-08 07:52 32.66710 -16.60435 5319 ft 286 kts 115°
2026-05-08 07:52 32.66014 -16.58195 6120 ft 293 kts 108°
2026-05-08 07:52 32.65821 -16.55761 6893 ft 303 kts 85°
2026-05-08 07:52 32.66396 -16.53346 7670 ft 308 kts 62°
2026-05-08 07:53 32.67685 -16.51325 8436 ft 309 kts 41°
2026-05-08 07:53 32.69251 -16.49558 9186 ft 313 kts 41°
2026-05-08 07:53 32.70842 -16.47764 9919 ft 318 kts 41°
2026-05-08 07:53 32.72481 -16.45912 10297 ft 336 kts 41°
2026-05-08 07:54 32.74233 -16.43931 10499 ft 359 kts 41°
2026-05-08 07:54 32.76090 -16.41826 10845 ft 375 kts 42°
2026-05-08 07:54 32.77992 -16.39657 11453 ft 382 kts 42°
2026-05-08 07:54 32.79921 -16.37450 12122 ft 387 kts 42°
2026-05-08 07:55 32.81876 -16.35208 12739 ft 392 kts 42°
2026-05-08 07:55 32.83849 -16.32941 13344 ft 397 kts 41°
2026-05-08 07:55 32.85845 -16.30645 13922 ft 402 kts 41°
2026-05-08 07:55 32.87844 -16.28350 14488 ft 407 kts 41°
2026-05-08 07:56 32.89899 -16.25989 15061 ft 413 kts 41°
2026-05-08 07:56 32.91976 -16.23605 15604 ft 418 kts 41°
2026-05-08 07:56 32.94078 -16.21192 16136 ft 422 kts 41°
2026-05-08 07:56 32.96205 -16.18744 16655 ft 427 kts 41°
2026-05-08 07:57 32.98359 -16.16267 17163 ft 433 kts 40°
2026-05-08 07:57 33.00535 -16.13762 17677 ft 437 kts 40°
2026-05-08 07:57 33.02732 -16.11232 18180 ft 442 kts 40°
2026-05-08 07:57 33.04950 -16.08676 18666 ft 446 kts 40°
2026-05-08 07:58 33.07194 -16.06088 19145 ft 451 kts 40°
2026-05-08 07:58 33.09457 -16.03476 19621 ft 455 kts 40°
2026-05-08 07:58 33.11737 -16.00843 20107 ft 459 kts 40°
2026-05-08 07:58 33.14041 -15.98178 20582 ft 463 kts 41°
2026-05-08 07:59 33.16368 -15.95488 21052 ft 467 kts 40°
2026-05-08 07:59 33.18706 -15.92780 21515 ft 470 kts 41°
2026-05-08 07:59 33.21061 -15.90050 21948 ft 474 kts 40°
2026-05-08 07:59 33.23435 -15.87294 22378 ft 477 kts 40°
2026-05-08 08:00 33.25823 -15.84525 22795 ft 480 kts 40°
2026-05-08 08:00 33.28237 -15.81728 23183 ft 484 kts 40°
2026-05-08 08:00 33.30659 -15.78914 23569 ft 487 kts 41°
2026-05-08 08:00 33.33097 -15.76074 23919 ft 491 kts 41°
2026-05-08 08:01 33.35550 -15.73210 24276 ft 495 kts 41°
2026-05-08 08:01 33.37986 -15.70363 24618 ft 497 kts 40°
2026-05-08 08:01 33.40472 -15.67459 24958 ft 500 kts 40°
2026-05-08 08:01 33.43071 -15.64704 25293 ft 499 kts 33°
2026-05-08 08:02 33.45826 -15.62145 25619 ft 502 kts 33°
2026-05-08 08:02 33.48583 -15.59576 25944 ft 504 kts 33°
2026-05-08 08:02 33.51356 -15.56980 26260 ft 507 kts 33°
2026-05-08 08:02 33.54136 -15.54371 26573 ft 509 kts 33°
2026-05-08 08:03 33.56934 -15.51746 26864 ft 512 kts 33°
2026-05-08 08:03 33.59744 -15.49108 27158 ft 514 kts 33°
2026-05-08 08:03 33.62566 -15.46461 27444 ft 517 kts 33°
2026-05-08 08:03 33.65398 -15.43801 27722 ft 519 kts 33°
2026-05-08 08:04 33.68245 -15.41124 28016 ft 521 kts 33°
2026-05-08 08:04 33.71102 -15.38438 28295 ft 522 kts 33°
2026-05-08 08:04 33.73969 -15.35739 28546 ft 524 kts 33°
2026-05-08 08:04 33.76845 -15.33027 28778 ft 526 kts 33°
2026-05-08 08:05 33.79733 -15.30300 29009 ft 528 kts 33°
2026-05-08 08:05 33.82624 -15.27564 29242 ft 530 kts 33°
2026-05-08 08:05 33.85523 -15.24819 29457 ft 531 kts 33°
2026-05-08 08:05 33.88428 -15.22067 29667 ft 533 kts 32°
2026-05-08 08:06 33.91344 -15.19301 29860 ft 535 kts 33°
2026-05-08 08:06 33.94271 -15.16526 30065 ft 536 kts 32°
2026-05-08 08:06 33.97165 -15.13782 30343 ft 535 kts 33°
2026-05-08 08:06 34.00084 -15.11011 30616 ft 534 kts 33°
2026-05-08 08:07 34.03001 -15.08236 30900 ft 534 kts 33°
2026-05-08 08:07 34.05912 -15.05468 31194 ft 532 kts 33°
2026-05-08 08:07 34.08819 -15.02701 31478 ft 532 kts 33°
2026-05-08 08:07 34.11718 -14.99938 31750 ft 531 kts 33°
2026-05-08 08:08 34.14617 -14.97173 32013 ft 531 kts 33°
2026-05-08 08:08 34.17516 -14.94406 32263 ft 530 kts 33°
2026-05-08 08:08 34.20411 -14.91642 32501 ft 530 kts 33°
2026-05-08 08:08 34.23304 -14.88879 32746 ft 530 kts 33°
2026-05-08 08:09 34.26194 -14.86112 32987 ft 530 kts 33°
2026-05-08 08:09 34.29082 -14.83342 33239 ft 529 kts 33°
2026-05-08 08:09 34.31971 -14.80569 33484 ft 529 kts 33°
2026-05-08 08:09 34.34858 -14.77796 33731 ft 529 kts 33°
2026-05-08 08:10 34.37737 -14.75027 33964 ft 529 kts 33°
2026-05-08 08:10 34.40526 -14.72110 34184 ft 533 kts 41°
2026-05-08 08:10 34.43103 -14.68869 34397 ft 534 kts 43°
2026-05-08 08:10 34.45669 -14.65608 34609 ft 534 kts 43°
2026-05-08 08:11 34.48235 -14.62342 34815 ft 534 kts 43°
2026-05-08 08:11 34.50792 -14.59082 35045 ft 533 kts 43°
2026-05-08 08:11 34.53314 -14.55861 35250 ft 533 kts 43°
2026-05-08 08:11 34.55868 -14.52596 35443 ft 532 kts 43°
2026-05-08 08:12 34.58419 -14.49333 35617 ft 532 kts 43°
2026-05-08 08:12 34.60964 -14.46075 35804 ft 532 kts 43°
2026-05-08 08:12 34.63514 -14.42807 35883 ft 532 kts 43°
2026-05-08 08:13 34.68604 -14.36283 35899 ft 531 kts 43°
2026-05-08 08:13 34.73695 -14.29771 35894 ft 531 kts 43°
2026-05-08 08:14 34.78768 -14.23252 35896 ft 530 kts 43°
2026-05-08 08:14 34.83794 -14.16762 35895 ft 530 kts 43°
2026-05-08 08:15 34.88853 -14.10222 35900 ft 530 kts 43°
2026-05-08 08:15 34.93902 -14.03695 35905 ft 529 kts 43°
2026-05-08 08:16 34.98949 -13.97152 35908 ft 529 kts 44°
2026-05-08 08:16 35.03985 -13.90613 35913 ft 529 kts 44°
2026-05-08 08:17 35.09016 -13.84068 35920 ft 528 kts 44°
2026-05-08 08:17 35.13998 -13.77565 35924 ft 527 kts 44°
2026-05-08 08:18 35.19011 -13.71022 35927 ft 527 kts 44°
2026-05-08 08:18 35.24014 -13.64469 35929 ft 526 kts 44°
2026-05-08 08:19 35.29008 -13.57924 35927 ft 526 kts 44°
2026-05-08 08:19 35.33994 -13.51377 35927 ft 525 kts 44°
2026-05-08 08:20 35.38977 -13.44824 35926 ft 525 kts 45°
2026-05-08 08:20 35.43945 -13.38263 35927 ft 525 kts 45°
2026-05-08 08:21 35.48911 -13.31698 35934 ft 525 kts 45°
2026-05-08 08:21 35.53874 -13.25126 35935 ft 524 kts 45°
2026-05-08 08:22 35.58826 -13.18556 35934 ft 524 kts 45°
2026-05-08 08:22 35.63774 -13.11972 35933 ft 524 kts 45°
2026-05-08 08:23 35.68730 -13.05386 35930 ft 524 kts 45°
2026-05-08 08:23 35.73678 -12.98803 35927 ft 524 kts 45°
2026-05-08 08:24 35.78616 -12.92187 35929 ft 524 kts 45°
2026-05-08 08:24 35.83512 -12.85606 35928 ft 524 kts 45°
2026-05-08 08:25 35.88443 -12.78995 35928 ft 523 kts 45°
2026-05-08 08:25 35.93364 -12.72375 35926 ft 523 kts 45°
2026-05-08 08:26 35.98280 -12.65752 35928 ft 523 kts 45°
2026-05-08 08:26 36.03187 -12.59128 35935 ft 522 kts 46°
2026-05-08 08:27 36.08157 -12.52610 35940 ft 519 kts 42°
2026-05-08 08:27 36.12538 -12.47559 35940 ft 517 kts 39°
2026-05-08 08:28 36.18814 -12.40710 35935 ft 517 kts 39°
2026-05-08 08:28 36.24140 -12.34729 35933 ft 517 kts 40°
2026-05-08 08:29 36.28549 -12.29631 35927 ft 518 kts 40°
2026-05-08 08:29 36.33804 -12.23531 35924 ft 518 kts 40°
2026-05-08 08:30 36.39074 -12.17431 35920 ft 517 kts 40°
2026-05-08 08:30 36.46946 -12.08348 35929 ft 517 kts 40°
2026-05-08 08:31 36.52209 -12.02250 35929 ft 517 kts 40°
2026-05-08 08:31 36.57469 -11.96137 35931 ft 517 kts 40°
2026-05-08 08:32 36.62723 -11.90025 35931 ft 516 kts 40°
2026-05-08 08:32 36.67968 -11.83918 35931 ft 516 kts 40°
2026-05-08 08:33 36.73196 -11.77796 35930 ft 515 kts 41°
2026-05-08 08:33 36.78422 -11.71685 35928 ft 515 kts 40°
2026-05-08 08:34 36.83643 -11.65568 35932 ft 515 kts 41°
2026-05-08 08:34 36.88815 -11.59476 35933 ft 514 kts 41°
2026-05-08 08:35 36.94019 -11.53342 35934 ft 513 kts 41°
2026-05-08 08:35 36.99212 -11.47222 35934 ft 513 kts 41°
2026-05-08 08:36 37.04393 -11.41102 35935 ft 512 kts 41°
2026-05-08 08:36 37.09561 -11.34982 35940 ft 510 kts 41°
2026-05-08 08:37 37.14718 -11.28877 35939 ft 510 kts 41°
2026-05-08 08:37 37.19860 -11.22764 35938 ft 509 kts 41°
2026-05-08 08:38 37.24988 -11.16646 35936 ft 508 kts 41°
2026-05-08 08:38 37.30106 -11.10527 35930 ft 508 kts 41°
2026-05-08 08:39 37.35226 -11.04415 35929 ft 507 kts 41°
2026-05-08 08:39 37.40340 -10.98290 35926 ft 507 kts 41°
2026-05-08 08:40 37.45445 -10.92156 35924 ft 507 kts 41°
2026-05-08 08:40 37.50507 -10.86065 35925 ft 507 kts 41°
2026-05-08 08:41 37.55602 -10.79934 35928 ft 506 kts 41°
2026-05-08 08:41 37.60683 -10.73790 35929 ft 505 kts 41°
2026-05-08 08:42 37.65756 -10.67649 35932 ft 505 kts 41°
2026-05-08 08:42 37.70821 -10.61504 35933 ft 505 kts 41°
2026-05-08 08:43 37.75881 -10.55357 35932 ft 504 kts 41°
2026-05-08 08:43 37.80931 -10.49202 35933 ft 504 kts 42°
2026-05-08 08:44 37.85941 -10.43080 35935 ft 504 kts 42°
2026-05-08 08:44 37.91030 -10.36991 35937 ft 503 kts 40°
2026-05-08 08:45 37.96169 -10.30997 35938 ft 502 kts 40°
2026-05-08 08:45 38.01297 -10.24983 35938 ft 501 kts 41°
2026-05-08 08:46 38.06391 -10.18951 35939 ft 501 kts 41°
2026-05-08 08:46 38.11477 -10.12893 35939 ft 501 kts 41°
2026-05-08 08:47 38.16562 -10.06837 35936 ft 501 kts 41°
2026-05-08 08:47 38.21651 -10.00777 35934 ft 501 kts 41°
2026-05-08 08:48 38.26732 -9.94710 35938 ft 501 kts 41°
2026-05-08 08:48 38.31815 -9.88632 35940 ft 501 kts 41°
2026-05-08 08:49 38.36886 -9.82548 35942 ft 500 kts 41°
2026-05-08 08:49 38.41949 -9.76459 35942 ft 500 kts 41°
2026-05-08 08:50 38.47012 -9.70367 35941 ft 500 kts 42°
2026-05-08 08:50 38.52063 -9.64271 35943 ft 499 kts 42°
2026-05-08 08:51 38.57069 -9.58213 35945 ft 499 kts 42°
2026-05-08 08:51 38.62026 -9.52009 35946 ft 498 kts 45°
2026-05-08 08:52 38.66715 -9.45483 35944 ft 497 kts 48°
2026-05-08 08:52 38.71306 -9.38868 35947 ft 496 kts 48°
2026-05-08 08:53 38.75936 -9.32325 35943 ft 496 kts 47°
2026-05-08 08:53 38.80610 -9.25829 35941 ft 495 kts 47°
2026-05-08 08:54 38.85272 -9.19348 35939 ft 494 kts 48°
2026-05-08 08:54 38.89907 -9.12848 35937 ft 493 kts 48°
2026-05-08 08:55 38.94529 -9.06339 35938 ft 492 kts 48°
2026-05-08 08:55 38.99109 -8.99872 35940 ft 492 kts 49°
2026-05-08 08:56 39.03719 -8.93351 35939 ft 492 kts 49°
2026-05-08 08:56 39.08326 -8.86846 35942 ft 491 kts 49°
2026-05-08 08:57 39.12918 -8.80339 35944 ft 490 kts 49°
2026-05-08 08:57 39.17500 -8.73835 35943 ft 490 kts 49°
2026-05-08 08:58 39.22067 -8.67326 35943 ft 489 kts 50°
2026-05-08 08:58 39.26626 -8.60809 35942 ft 488 kts 50°
2026-05-08 08:59 39.31175 -8.54304 35943 ft 487 kts 50°
2026-05-08 08:59 39.35687 -8.47851 35944 ft 486 kts 50°
2026-05-08 09:00 39.40210 -8.41358 35944 ft 486 kts 51°
2026-05-08 09:00 39.44719 -8.34864 35946 ft 484 kts 51°
2026-05-08 09:01 39.49210 -8.28378 35948 ft 483 kts 51°
2026-05-08 09:01 39.53684 -8.21898 35947 ft 482 kts 51°
2026-05-08 09:02 39.58152 -8.15445 35944 ft 480 kts 51°